VK4VP-5 Buderim QLD AU current weather conditions

sailwx.info

Wind from 115

Air temperature 22.8° C
Dewpoint 20.3° C

Last reported at 2015-Apr-01 09:41 UTC.
Time now 2015-Apr-01 10:41 UTC

Location: S 26°42' E 153°05'.
View on Google Maps.

See reports from other nearby stations

  
Tides and Currents Weather Stations Pressure Air Temp Water Temp Dewpoint Dewpoint Depression Visibility Wind Speed Wind Dir Waves Ship Positions
date/time (UTC)wind fromknots sea level pressurealtimeterstation pressurevisibilityair tempwater tempwave heightnotes
2015-Apr-01 09:41 115 22.8
2015-Apr-01 09:31 111 0 gusting 8 22.8
2015-Apr-01 09:21 053 0 gusting 7 22.2
2015-Apr-01 09:11 038 0 gusting 7 22.2
2015-Apr-01 09:01 073 0 gusting 6 22.2
2015-Apr-01 08:51 079 2 gusting 8 22.2
2015-Apr-01 08:41 074 1 gusting 7 22.2
2015-Apr-01 08:31 099 0 gusting 5 22.2
2015-Apr-01 08:21 080 1 gusting 8 22.2
2015-Apr-01 08:11 090 0 gusting 6 22.2
2015-Apr-01 08:01 071 2 gusting 12 22.2
2015-Apr-01 07:51 106 0 gusting 8 22.2
2015-Apr-01 07:41 097 2 gusting 7 22.8
2015-Apr-01 07:27 100 22.8
2015-Apr-01 07:17 100 22.8
2015-Apr-01 07:07 097 0 gusting 5 22.8
2015-Apr-01 06:57 091 0 gusting 8 22.8
2015-Apr-01 06:47 121 22.8
2015-Apr-01 06:37 120 22.8
2015-Apr-01 06:27 118 22.8
2015-Apr-01 06:17 131 0 gusting 6 22.8
2015-Apr-01 06:07 155 0 gusting 8 22.8
2015-Apr-01 05:57 164 22.2
2015-Apr-01 05:47 164 22.2
2015-Apr-01 05:37 165 22.2
2015-Apr-01 05:27 165 21.7
2015-Apr-01 05:17 165 0 gusting 7 21.7
2015-Apr-01 05:07 168 0 gusting 6 21.1
2015-Apr-01 04:57 218 0 gusting 6 20.6
2015-Apr-01 04:47 222 20.6
2015-Apr-01 04:37 222 21.1
2015-Apr-01 04:27 222 21.1
2015-Apr-01 04:17 222 0 gusting 2 20.6
2015-Apr-01 04:07 222 20.6
2015-Apr-01 03:57 222 0 gusting 5 20.6
2015-Apr-01 03:47 222 1 gusting 5 20.6
2015-Apr-01 03:37 222 1 gusting 6 20.6
2015-Apr-01 03:27 222 1 gusting 5 20.6
2015-Apr-01 03:17 222 1 gusting 6 20.0
2015-Apr-01 03:07 222 20.0
2015-Apr-01 02:57 222 2 gusting 8 20.0
2015-Apr-01 02:48 222 0 gusting 6 20.0
2015-Apr-01 02:37 222 0 gusting 3 20.0
2015-Apr-01 02:27 222 0 gusting 6 20.0
2015-Apr-01 02:17 222 20.0
2015-Apr-01 02:07 222 1 gusting 6 19.4
2015-Apr-01 01:57 222 3 gusting 8 19.4
2015-Apr-01 01:47 223 3 gusting 9 19.4
2015-Apr-01 01:37 225 2 gusting 8 19.4
2015-Apr-01 01:27 225 2 gusting 8 19.4
2015-Apr-01 01:17 224 1 gusting 7 19.4
2015-Apr-01 01:07 224 1 gusting 5 19.4
2015-Apr-01 00:57 224 0 gusting 5 19.4
2015-Apr-01 00:47 222 0 gusting 6 19.4
2015-Apr-01 00:37 186 2 gusting 7 19.4
2015-Apr-01 00:27 177 1 gusting 5 19.4
2015-Apr-01 00:17 172 2 gusting 8 19.4
2015-Apr-01 00:07 133 1 gusting 6 19.4
2015-Mar-31 23:57 127 2 gusting 6 19.4
2015-Mar-31 23:47 121 0 gusting 6 19.4
2015-Mar-31 23:37 118 1 gusting 5 19.4
2015-Mar-31 23:32 117 0 gusting 2 19.4
2015-Mar-31 23:27 117 19.4
2015-Mar-31 23:22 117 19.4
2015-Mar-31 23:17 114 1 gusting 6 19.4
2015-Mar-31 23:07 106 1 gusting 6 20.0
2015-Mar-31 22:57 081 20.0
2015-Mar-31 22:52 069 20.0
2015-Mar-31 22:47 069 20.0
2015-Mar-31 22:42 069 19.4
2015-Mar-31 22:37 067 0 gusting 5 19.4
2015-Mar-31 22:27 047 19.4
2015-Mar-31 22:17 037 19.4
2015-Mar-31 22:07 325 20.0
2015-Mar-31 21:57 223 20.0
2015-Mar-31 21:52 19.4
2015-Mar-31 21:47 222 19.4
2015-Mar-31 21:42 223 19.4
2015-Mar-31 21:37 223 20.0
2015-Mar-31 21:27 223 19.4
2015-Mar-31 21:17 223 0 gusting 2 20.0
2015-Mar-31 21:07 221 1 gusting 5 20.0
2015-Mar-31 20:57 219 1 gusting 7 20.0
2015-Mar-31 20:47 219 19.4
2015-Mar-31 20:37 219 19.4
2015-Mar-31 20:27 188 19.4
2015-Mar-31 20:17 188 19.4
2015-Mar-31 20:07 188 0 gusting 3 19.4
2015-Mar-31 20:02 188 0 gusting 3 19.4
2015-Mar-31 19:57 188 0 gusting 3 19.4
2015-Mar-31 19:52 188 0 gusting 5 19.4
2015-Mar-31 19:47 188 0 gusting 5 19.4
2015-Mar-31 19:42 188 0 gusting 3 19.4
2015-Mar-31 19:37 188 0 gusting 5 19.4
2015-Mar-31 19:27 188 1 gusting 5 19.4
2015-Mar-31 19:22 188 1 gusting 5 19.4
2015-Mar-31 19:17 188 0 gusting 3 19.4
2015-Mar-31 19:07 188 19.4
2015-Mar-31 18:57 188 0 gusting 2 19.4
2015-Mar-31 18:52 188 19.4
2015-Mar-31 18:47 188 19.4
2015-Mar-31 18:37 188 0 gusting 3 19.4
2015-Mar-31 18:27 188 1 gusting 6 19.4
2015-Mar-31 18:17 188 0 gusting 3 19.4
2015-Mar-31 18:07 188 0 gusting 3 19.4
2015-Mar-31 18:02 188 0 gusting 2 19.4
2015-Mar-31 17:57 188 19.4
2015-Mar-31 17:47 188 0 gusting 5 19.4
2015-Mar-31 17:37 188 0 gusting 8 19.4
2015-Mar-31 17:27 187 0 gusting 8 19.4
2015-Mar-31 17:17 207 3 gusting 13 19.4
2015-Mar-31 17:07 231 1 gusting 8 19.4
2015-Mar-31 17:02 231 1 gusting 8 19.4
2015-Mar-31 16:57 231 2 gusting 6 19.4
2015-Mar-31 16:47 231 3 gusting 8 19.4
2015-Mar-31 16:42 232 4 gusting 10 19.4
2015-Mar-31 16:37 232 4 gusting 10 19.4
2015-Mar-31 16:27 233 2 gusting 7 19.4
2015-Mar-31 16:22 232 2 gusting 8 19.4
2015-Mar-31 16:17 231 2 gusting 8 19.4
2015-Mar-31 16:12 231 2 gusting 7 19.4
2015-Mar-31 16:07 231 2 gusting 7 19.4
2015-Mar-31 15:57 216 3 gusting 9 19.4
2015-Mar-31 15:47 214 3 gusting 10 19.4
2015-Mar-31 15:42 214 3 gusting 8 19.4
2015-Mar-31 15:37 214 2 gusting 8 19.4
2015-Mar-31 15:27 214 1 gusting 6 19.4
2015-Mar-31 15:17 214 1 gusting 3 20.0
2015-Mar-31 15:12 214 1 gusting 6 20.0
2015-Mar-31 15:07 214 1 gusting 6 20.0
2015-Mar-31 14:57 214 1 gusting 7 19.4
2015-Mar-31 14:52 214 0 gusting 5 20.0
2015-Mar-31 14:47 214 0 gusting 5 20.0
2015-Mar-31 14:37 214 0 gusting 5 20.0
2015-Mar-31 14:27 213 0 gusting 3 20.0
2015-Mar-31 14:17 213 20.0
2015-Mar-31 14:07 213 0 gusting 5 20.0
2015-Mar-31 13:57 213 1 gusting 5 20.0
2015-Mar-31 13:47 213 1 gusting 6 20.0
2015-Mar-31 13:37 213 2 gusting 8 20.0
2015-Mar-31 13:27 213 20.6
2015-Mar-31 13:17 213 0 gusting 3 20.6
2015-Mar-31 13:12 213 1 gusting 6 20.6
2015-Mar-31 13:07 214 2 gusting 6 20.6
2015-Mar-31 13:02 216 0 gusting 3 20.6
2015-Mar-31 12:57 217 20.6
2015-Mar-31 12:47 217 0 gusting 5 20.6
2015-Mar-31 12:42 217 1 gusting 5 20.6
2015-Mar-31 12:37 217 2 gusting 8 20.6
2015-Mar-31 12:27 214 1 gusting 7 20.6
2015-Mar-31 12:17 214 0 gusting 5 20.6
2015-Mar-31 12:12 214 0 gusting 6 20.6
2015-Mar-31 12:07 210 1 gusting 8 20.6
2015-Mar-31 12:02 206 2 gusting 8 20.6
2015-Mar-31 11:57 194 1 gusting 7 20.6
2015-Mar-31 11:52 187 1 gusting 6 20.6
2015-Mar-31 11:47 187 1 gusting 5 21.1
2015-Mar-31 11:37 186 0 gusting 3 21.1
2015-Mar-31 11:27 187 21.1
2015-Mar-31 11:22 186 21.1
2015-Mar-31 11:17 187 21.1
2015-Mar-31 11:07 186 21.1
2015-Mar-31 11:02 186 21.1
2015-Mar-31 10:57 186 21.1
2015-Mar-31 10:47 185 0 gusting 6 21.1
2015-Mar-31 10:42 185 0 gusting 6 21.1
2015-Mar-31 10:37 185 20.6
2015-Mar-31 10:27 184 20.6
2015-Mar-31 10:22 185 20.6
2015-Mar-31 10:17 185 20.6
2015-Mar-31 10:07 185 0 gusting 3 21.1
2015-Mar-31 10:02 185 0 gusting 5 21.1
2015-Mar-31 09:57 179 2 gusting 10 21.1
2015-Mar-31 09:52 170 3 gusting 10 21.1
2015-Mar-31 09:47 161 2 gusting 6 21.1
2015-Mar-31 09:37 161 0 gusting 2 21.1
2015-Mar-31 09:27 161 21.7
2015-Mar-31 09:17 161 21.7
2015-Mar-31 09:07 160 21.7
2015-Mar-31 08:57 160 21.7
2015-Mar-31 08:47 161 21.1
2015-Mar-31 08:42 160 21.1
2015-Mar-31 08:37 160 21.1
2015-Mar-31 08:32 160 21.1
2015-Mar-31 08:27 161 21.1
2015-Mar-31 08:17 161 0 gusting 3 21.1
2015-Mar-31 08:07 161 21.1
2015-Mar-31 07:57 160 21.1
2015-Mar-31 07:52 160 21.1
2015-Mar-31 07:47 160 21.7
2015-Mar-31 07:37 160 0 gusting 7 21.7
2015-Mar-31 07:32 160 0 gusting 7 21.7
2015-Mar-31 07:27 159 0 gusting 7 22.2
2015-Mar-31 07:17 154 2 gusting 8 22.2
2015-Mar-31 07:12 150 2 gusting 9 22.2
2015-Mar-31 07:07 144 1 gusting 9 22.2
2015-Mar-31 06:57 134 1 gusting 9 22.2
2015-Mar-31 06:47 149 3 gusting 12 22.2
2015-Mar-31 06:37 154 2 gusting 9 22.2
2015-Mar-31 06:32 145 3 gusting 11 22.2
2015-Mar-31 06:27 152 3 gusting 11 22.2
2015-Mar-31 06:17 161 4 gusting 15 22.8
2015-Mar-31 06:12 173 2 gusting 8 22.8
2015-Mar-31 06:07 181 1 gusting 6 22.8
2015-Mar-31 06:02 179 2 gusting 6 22.8
2015-Mar-31 05:57 178 2 gusting 6 22.8
2015-Mar-31 05:47 177 1 gusting 8 22.8
2015-Mar-31 05:37 177 2 gusting 9 23.3
2015-Mar-31 05:27 176 2 gusting 8 23.3
2015-Mar-31 05:22 176 1 gusting 6 23.3
2015-Mar-31 05:17 176 1 gusting 7 23.3
2015-Mar-31 05:07 176 1 gusting 6 23.3
2015-Mar-31 04:57 174 2 gusting 8 23.3
2015-Mar-31 04:47 174 4 gusting 14 23.9
2015-Mar-31 04:37 144 2 gusting 8 24.4
2015-Mar-31 04:32 140 2 gusting 7 24.4
2015-Mar-31 04:27 139 1 gusting 6 24.4
2015-Mar-31 04:22 138 0 gusting 6 24.4
2015-Mar-31 04:17 137 0 gusting 6 24.4
2015-Mar-31 04:07 136 1 gusting 6 24.4
2015-Mar-31 03:57 134 1 gusting 9 24.4
2015-Mar-31 03:47 144 1 gusting 8 24.4
2015-Mar-31 03:42 150 1 gusting 8 24.4
2015-Mar-31 03:37 152 2 gusting 8 24.4
2015-Mar-31 03:27 153 0 gusting 5 24.4
2015-Mar-31 03:17 152 0 gusting 5 24.4
2015-Mar-31 03:07 153 1 gusting 6 25.0
2015-Mar-31 02:57 153 0 gusting 6 25.0
2015-Mar-31 02:47 153 0 gusting 6 25.0
2015-Mar-31 02:42 156 0 gusting 6 25.0
2015-Mar-31 02:37 159 1 gusting 6 25.0
2015-Mar-31 02:32 160 1 gusting 6 24.4
2015-Mar-31 02:27 162 1 gusting 8 24.4
2015-Mar-31 02:17 166 1 gusting 8 24.4
2015-Mar-31 02:07 172 0 gusting 7 24.4
2015-Mar-31 02:02 173 1 gusting 7 24.4
2015-Mar-31 01:57 174 1 gusting 7 24.4
2015-Mar-31 01:47 175 1 gusting 5 24.4
2015-Mar-31 01:37 175 0 gusting 3 25.0
2015-Mar-31 01:32 176 0 gusting 5 25.0
2015-Mar-31 01:26 176 1 gusting 6 25.0
2015-Mar-31 01:16 176 0 gusting 5 25.0
2015-Mar-31 01:12 176 25.6
2015-Mar-31 01:06 177 25.0
2015-Mar-31 01:02 178 0 gusting 6 25.0
2015-Mar-31 00:56 179 0 gusting 6 25.0
2015-Mar-31 00:46 181 25.0
2015-Mar-31 00:36 181 25.0
2015-Mar-31 00:32 181 25.0
2015-Mar-31 00:26 181 25.0
2015-Mar-31 00:16 181 25.0
2015-Mar-31 00:12 183 0 gusting 8 24.4
2015-Mar-31 00:06 186 0 gusting 8 24.4
2015-Mar-31 00:02 191 24.4
2015-Mar-30 23:56 192 0 gusting 3 24.4
2015-Mar-30 23:46 192 0 gusting 5 23.9
2015-Mar-30 23:42 193 23.9
2015-Mar-30 23:36 206 23.9
2015-Mar-30 23:26 207 23.3
2015-Mar-30 23:22 206 23.3
2015-Mar-30 23:16 206 23.3
2015-Mar-30 23:06 207 0 gusting 5 22.8
2015-Mar-30 22:56 207 22.8
2015-Mar-30 22:52 207 0 gusting 3 22.2
2015-Mar-30 22:46 207 22.2
2015-Mar-30 22:36 207 22.2
2015-Mar-30 22:32 207 22.2
2015-Mar-30 22:26 206 21.7
2015-Mar-30 22:16 206 21.7
2015-Mar-30 22:06 203 0 gusting 3 21.7
2015-Mar-30 21:56 203 0 gusting 5 21.1
2015-Mar-30 21:52 203 0 gusting 2 21.1
2015-Mar-30 21:46 203 0 gusting 2 21.1
2015-Mar-30 21:42 203 21.1
2015-Mar-30 21:36 203 21.1
2015-Mar-30 21:26 20.6
2015-Mar-30 21:22 20.6
2015-Mar-30 21:16 20.6
2015-Mar-30 21:12 203 20.6
2015-Mar-30 21:06 203 20.6
2015-Mar-30 20:56 202 20.6
2015-Mar-30 20:46 203 20.0
2015-Mar-30 20:42 202 20.0
2015-Mar-30 20:36 202 20.0
2015-Mar-30 20:26 203 20.0
2015-Mar-30 20:16 150 20.0
2015-Mar-30 20:12 150 20.0
2015-Mar-30 20:06 150 20.0
2015-Mar-30 20:02 150 20.0
2015-Mar-30 19:56 149 20.0
2015-Mar-30 19:46 218 19.4
2015-Mar-30 19:36 218 19.4
2015-Mar-30 19:32 218 19.4
2015-Mar-30 19:26 218 19.4
2015-Mar-30 19:16 218 19.4
2015-Mar-30 19:12 218 19.4
2015-Mar-30 19:06 218 19.4
2015-Mar-30 19:02 218 19.4
2015-Mar-30 18:56 218 19.4
2015-Mar-30 18:52 218 19.4
2015-Mar-30 18:46 19.4
2015-Mar-30 18:36 19.4
2015-Mar-30 18:26 19.4
2015-Mar-30 18:22 19.4
2015-Mar-30 18:16 19.4
2015-Mar-30 18:06 218 20.0
2015-Mar-30 18:02 218 20.0
2015-Mar-30 17:56 218 20.0
2015-Mar-30 17:46 218 19.4
2015-Mar-30 17:36 218 19.4
2015-Mar-30 17:26 218 19.4
2015-Mar-30 17:16 218 18.9
2015-Mar-30 17:06 218 18.9
2015-Mar-30 16:56 18.9
2015-Mar-30 16:52 18.9
2015-Mar-30 16:46 18.9
2015-Mar-30 16:36 18.9
2015-Mar-30 16:26 218 18.9
2015-Mar-30 16:22 218 18.9
2015-Mar-30 16:16 218 18.9
2015-Mar-30 16:06 218 18.9
2015-Mar-30 15:56 218 18.9
2015-Mar-30 15:46 18.9
2015-Mar-30 15:36 18.9
2015-Mar-30 15:26 19.4
2015-Mar-30 15:22 19.4
2015-Mar-30 15:16 19.4
2015-Mar-30 15:06 19.4
2015-Mar-30 14:56 218 19.4
2015-Mar-30 14:46 19.4
2015-Mar-30 14:42 19.4
2015-Mar-30 14:36 19.4
2015-Mar-30 14:26 19.4
2015-Mar-30 14:16 19.4
2015-Mar-30 14:12 20.0
2015-Mar-30 14:06 20.0
2015-Mar-30 14:02 20.0
2015-Mar-30 13:56 20.0
2015-Mar-30 13:46 20.0
2015-Mar-30 13:36 20.0
2015-Mar-30 13:26 20.0
2015-Mar-30 13:16 20.0
2015-Mar-30 13:06 20.0
2015-Mar-30 12:56 20.6
2015-Mar-30 12:46 218 20.6
2015-Mar-30 12:36 20.6
2015-Mar-30 12:26 218 20.6
2015-Mar-30 12:16 218 20.6
2015-Mar-30 12:12 20.6
2015-Mar-30 12:06 20.6
2015-Mar-30 11:56 20.6
2015-Mar-30 11:46 20.6
2015-Mar-30 11:36 218 20.6
2015-Mar-30 11:26 20.6
2015-Mar-30 11:16 20.6
2015-Mar-30 10:54 20.6
2015-Mar-30 10:44 21.1
2015-Mar-30 10:34 21.1
2015-Mar-30 10:24 218 21.1